Location: Grange Rosano
(44.4500°N, 6.9667°E)
Time: 21:22:14
(UTC+00:00)

Cosmos 2251 Rocket - Pass Details

Date: 26 May 2022
Orbit: 764 x 791 km, 74.0° (Epoch: 01 July)

Event Time Altitude Azimuth Distance (km) Brightness Sun altitude
Rises 01:57:36 0° 341° (NNW) 3,247 7.3 -16.2°
Reaches altitude 10° 02:00:00 10° 344° (NNW) 2,320 6.5 -15.9°
Maximum altitude 02:05:14 66° 67° (ENE) 845 3.9 -15.4°
Drops below altitude 10° 02:10:29 10° 150° (SSE) 2,321 5.8 -14.8°
Sets 02:12:53 0° 153° (SSE) 3,248 6.5 -14.5°
